Location: Radomski Observatory
(40.2854°N, 79.5145°W)
Time: 20:42:26
(UTC-04:00)

Cosmos 1072 Rocket - Visible Passes

Search period start: 24 July 2017 00:00
Search period end: 03 August 2017 00:00
Orbit: 950 x 1008 km, 82.9° (Epoch: 24 July)

Date Brightness Start Highest point End Pass type
(mag) Time Alt. Az. Time Alt. Az. Time Alt. Az.
24 Jul 6.3 21:35:08 10° NNW 21:40:43 32° W 21:46:14 10° SSW visible
25 Jul 7.1 22:02:41 10° NW 22:06:39 17° W 22:10:37 10° WSW visible
27 Jul 6.2 21:08:44 10° NNW 21:14:28 36° W 21:20:08 10° SSW visible
28 Jul 7.1 21:36:07 10° NW 21:40:27 19° W 21:44:45 10° SW visible
31 Jul 7.1 21:09:35 10° NW 21:14:13 22° W 21:18:49 10° SW visible
01 Aug 7.7 21:38:43 10° WNW 21:40:03 11° WNW 21:41:22 10° W visible
